COSMOS 2251 DEB, 34637

Orbit data source: Space-Track

COSMOS 2251 DEB, 34637 is space debris in LEO originally from a launch on Wed, 16 Jun 1993 UTC launched from the Plesetsk Missile And Space Complex (PKMTR). The debris from Iridium 33, an American commercial communications satellite, has been tracked extensively since its accidental collision with the defunct Russian satellite Cosmos 2251 in 2009. This event, occurring at high speed in low Earth orbit (LEO), generated thousands of pieces of space debris, significantly increasing the risk of further collisions. The Iridium 33 debris cloud has impacted space traffic management and orbital debris mitigation strategies, making it a subject of ongoing study in space situational awareness.

Loading next visibility...
Identifier
34637, 1993-036XJ
Orbit
LEO
Country
Flag of CISCIS
Related business
Manufacturer
Unknown
Mission
Spacecraft
Bus & Motor
Unknown
Mass
Unknown
Launch date (UTC)
1993-06-16 (33 years ago)
Launch vehicle
Unknown
Launch site
Plesetsk Missile And Space Complex (PKMTR)
Object type
Payload
Rocket body
Debris
Shape & HBR
Unknown shape, 0.1 m
Radar Cross Section
Medium (>0.1 m² and <1 m²)

Expand to show TLE details & history
Last TLE update: 13 hours ago

TLE from 13 hours ago
0 COSMOS 2251 DEB
1 34637U 93036XJ  26235.72127233  .00002043  00000-0  40756-3 0  9993
2 34637  74.0498 335.9945 0050487 339.4927 170.7973 14.61852825922364
Epoch: 2026-08-23T17:18Z
TLE epoch observation values (Epoch: 2026-08-23T17:18:37.929Z)
Latitude
28.42302°
Longitude
-84.52717°
Altitude
725.637 km
Speed
7.477 km/s
True Right ascension
09h 48m 34s
True Declination
28° 16' 43"
Sunlit
Object was in daylight at epoch
Visualization orbit readout
Latitude
Unknown
Longitude
Unknown
Altitude
Unknown
Speed
Unknown
Apparent Right ascension
Unknown
Apparent Declination
Unknown
Sunlit
N/A
Visualization observer readout
Local Sidereal Time
21:35:01
Azimuth
Unknown
Elevation
Unknown
Doppler factor
Unknown
Orbital elements
Apogee altitude
720.451 km
Perigee altitude
649.133 km
Semi-major axis
7,062.929 km
Eccentricity
0.00505
Inclination
74.0498°
RAAN
335.9945°
Arg. of periapsis
339.4927°
True anomaly
170.88925°
Mean anomaly
170.7973°
Eccentric anomaly
170.84333°
Mean motion
3.6565 °/min
Orbital period
98.45 mins
BSTAR
0.00040756

Documentation

Showing up to 5 results
|